| time (UTC) | temp F | wind direction | speed MPH | gust MPH | rain 1hr in | rain 24hr in | rain mn in | humidity % | barometer mb |
| 20260507024538 | 55 | 172 | 1.0 | 5.0 | 0.00 | 0.00 | 0.00 | 77 | 1020.6 |
| 20260507023037 | 56 | 199 | 1.0 | 5.0 | 0.00 | 0.00 | 0.00 | 77 | 1020.5 |
| 20260507021535 | 56 | 167 | 0.0 | 6.0 | 0.00 | 0.00 | 0.00 | 77 | 1020.5 |
| 20260507020035 | 56 | 167 | 1.0 | 6.0 | 0.00 | 0.00 | 0.00 | 77 | 1020.4 |
| 20260507014554 | 56 | 168 | 1.0 | 5.0 | 0.00 | 0.00 | 0.00 | 77 | 1020.5 |
| 20260507013051 | 56 | 146 | 1.0 | 6.0 | 0.00 | 0.00 | 0.00 | 77 | 1020.5 |
| 20260507011540 | 56 | 159 | 2.0 | 7.0 | 0.00 | 0.00 | 0.00 | 77 | 1020.6 |
| 20260507010035 | 56 | 225 | 3.0 | 7.0 | 0.00 | 0.00 | 0.00 | 76 | 1020.5 |
| 20260507004536 | 56 | 157 | 2.0 | 6.0 | 0.00 | 0.00 | 0.00 | 76 | 1020.7 |
| 20260507003038 | 56 | 190 | 2.0 | 7.0 | 0.00 | 0.00 | 0.00 | 76 | 1020.7 |
| 20260507001555 | 56 | 164 | 1.0 | 5.0 | 0.00 | 0.00 | 0.00 | 77 | 1020.6 |
| 20260507000040 | 56 | 169 | 0.0 | 7.0 | 0.00 | 0.00 | 0.00 | 77 | 1020.6 |
| 20260506234536 | 56 | 189 | 2.0 | 6.0 | 0.00 | 0.00 | 0.00 | 77 | 1020.8 |
| 20260506233043 | 55 | 158 | 2.0 | 7.0 | 0.00 | 0.00 | 0.00 | 77 | 1020.7 |
| 20260506231541 | 56 | 171 | 3.0 | 11.0 | 0.00 | 0.00 | 0.00 | 76 | 1020.8 |
| 20260506230043 | 56 | 157 | 3.0 | 8.0 | 0.00 | 0.00 | 0.00 | 75 | 1020.8 |
| 20260506224537 | 56 | 170 | 1.0 | 7.0 | 0.00 | 0.00 | 0.00 | 76 | 1020.8 |
| 20260506223038 | 56 | 205 | 2.0 | 7.0 | 0.00 | 0.00 | 0.00 | 76 | 1020.9 |
| 20260506221537 | 56 | 153 | 2.0 | 7.0 | 0.00 | 0.00 | 0.00 | 75 | 1021.0 |
| 20260506220036 | 56 | 157 | 2.0 | 9.0 | 0.00 | 0.00 | 0.00 | 75 | 1021.0 |
| 20260506214542 | 57 | 116 | 2.0 | 10.0 | 0.00 | 0.00 | 0.00 | 74 | 1020.9 |
| 20260506213039 | 57 | 164 | 1.0 | 10.0 | 0.00 | 0.00 | 0.00 | 74 | 1020.9 |
| 20260506211540 | 57 | 160 | 1.0 | 8.0 | 0.00 | 0.00 | 0.00 | 74 | 1021.1 |
| 20260506210040 | 57 | 150 | 2.0 | 8.0 | 0.00 | 0.00 | 0.00 | 74 | 1021.0 |
| 20260506204536 | 57 | 189 | 4.0 | 9.0 | 0.00 | 0.00 | 0.00 | 74 | 1020.9 |
| 20260506203042 | 57 | 140 | 4.0 | 10.0 | 0.00 | 0.00 | 0.00 | 74 | 1020.8 |
| 20260506201534 | 56 | 209 | 3.0 | 10.0 | 0.00 | 0.00 | 0.00 | 75 | 1020.9 |
| 20260506200042 | 56 | 231 | 2.0 | 8.0 | 0.00 | 0.00 | 0.00 | 75 | 1020.8 |
| 20260506194538 | 56 | 139 | 2.0 | 7.0 | 0.00 | 0.00 | 0.00 | 74 | 1020.7 |
| 20260506193036 | 55 | 250 | 2.0 | 6.0 | 0.00 | 0.00 | 0.00 | 75 | 1020.7 |
| 20260506191541 | 55 | 121 | 2.0 | 5.0 | 0.00 | 0.00 | 0.00 | 76 | 1020.8 |
| 20260506190040 | 54 | 146 | 3.0 | 8.0 | 0.00 | 0.00 | 0.00 | 77 | 1020.6 |
| 20260506184536 | 54 | 190 | 3.0 | 11.0 | 0.00 | 0.00 | 0.00 | 78 | 1020.6 |
| 20260506183037 | 53 | 151 | 1.0 | 8.0 | 0.00 | 0.00 | 0.00 | 79 | 1020.7 |
| 20260506181543 | 53 | 178 | 3.0 | 10.0 | 0.00 | 0.00 | 0.00 | 80 | 1020.7 |
| 20260506180048 | 52 | 0 | 3.0 | 10.0 | 0.00 | 0.00 | 0.00 | 81 | 1020.6 |
| 20260506174537 | 51 | 217 | 2.0 | 8.0 | 0.00 | 0.00 | 0.00 | 82 | 1020.1 |
| 20260506173037 | 51 | 194 | 2.0 | 7.0 | 0.00 | 0.00 | 0.00 | 84 | 1020.3 |
| 20260506171548 | 50 | 186 | 2.0 | 7.0 | 0.00 | 0.00 | 0.00 | 84 | 1020.4 |
| 20260506170037 | 50 | 125 | 2.0 | 7.0 | 0.00 | 0.00 | 0.00 | 84 | 1020.6 |
| 20260506164539 | 50 | 167 | 2.0 | 7.0 | 0.00 | 0.00 | 0.00 | 85 | 1020.4 |
| 20260506163047 | 50 | 0 | 2.0 | 12.0 | 0.00 | 0.00 | 0.00 | 86 | 1020.5 |
| 20260506161548 | 50 | 126 | 3.0 | 7.0 | 0.00 | 0.00 | 0.00 | 87 | 1019.9 |
| 20260506160036 | 50 | 175 | 2.0 | 8.0 | 0.00 | 0.00 | 0.00 | 87 | 1019.5 |
| 20260506154537 | 50 | 103 | 3.0 | 7.0 | 0.00 | 0.00 | 0.00 | 87 | 1019.6 |
| 20260506153043 | 49 | 148 | 3.0 | 9.0 | 0.00 | 0.00 | 0.00 | 87 | 1019.9 |
| 20260506151538 | 49 | 120 | 1.0 | 7.0 | 0.00 | 0.00 | 0.00 | 87 | 1020.1 |
| 20260506150037 | 49 | 138 | 1.0 | 8.0 | 0.00 | 0.00 | 0.00 | 86 | 1019.8 |
| 20260506144535 | 49 | 162 | 0.0 | 7.0 | 0.00 | 0.00 | 0.00 | 86 | 1019.7 |
| 20260506143034 | 49 | 161 | 2.0 | 6.0 | 0.00 | 0.00 | 0.00 | 85 | 1019.8 |
| 20260506141540 | 49 | 150 | 0.0 | 2.0 | 0.00 | 0.00 | 0.00 | 85 | 1019.7 |
| 20260506140045 | 49 | 0 | 0.0 | 5.0 | 0.00 | 0.00 | 0.00 | 84 | 1019.6 |
| 20260506134606 | 49 | 0 | 0.0 | 8.0 | 0.00 | 0.00 | 0.00 | 84 | 1019.6 |
| 20260506133035 | 49 | 157 | 0.0 | 4.0 | 0.00 | 0.00 | 0.00 | 84 | 1019.5 |
| 20260506131539 | 49 | 78 | 2.0 | 6.0 | 0.00 | 0.00 | 0.00 | 84 | 1019.3 |
| 20260506130040 | 50 | 0 | 1.0 | 9.0 | 0.00 | 0.00 | 0.00 | 83 | 1019.4 |
| 20260506124538 | 50 | 168 | 3.0 | 7.0 | 0.00 | 0.00 | 0.00 | 83 | 1019.0 |
| 20260506123043 | 50 | 169 | 2.0 | 9.0 | 0.00 | 0.00 | 0.00 | 83 | 1019.0 |
| 20260506121538 | 50 | 182 | 1.0 | 8.0 | 0.00 | 0.00 | 0.00 | 83 | 1018.9 |
| 20260506120043 | 50 | 193 | 2.0 | 6.0 | 0.00 | 0.00 | 0.00 | 83 | 1018.8 |
| 20260506114547 | 50 | 173 | 1.0 | 8.0 | 0.00 | 0.00 | 0.00 | 83 | 1018.8 |
| 20260506113042 | 50 | 159 | 3.0 | 7.0 | 0.00 | 0.00 | 0.00 | 83 | 1018.6 |
| 20260506111537 | 50 | 0 | 1.0 | 6.0 | 0.00 | 0.00 | 0.00 | 83 | 1018.6 |
| 20260506110036 | 50 | 174 | 1.0 | 6.0 | 0.00 | 0.00 | 0.00 | 83 | 1018.6 |
| 20260506104536 | 50 | 168 | 1.0 | 5.0 | 0.00 | 0.00 | 0.00 | 83 | 1018.4 |
| 20260506103038 | 50 | 156 | 2.0 | 5.0 | 0.00 | 0.00 | 0.00 | 83 | 1018.4 |
| 20260506101541 | 50 | 0 | 0.0 | 5.0 | 0.00 | 0.00 | 0.00 | 83 | 1018.3 |
| 20260506100038 | 50 | 158 | 1.0 | 5.0 | 0.00 | 0.00 | 0.00 | 83 | 1018.4 |
| 20260506094536 | 50 | 0 | 1.0 | 7.0 | 0.00 | 0.00 | 0.00 | 83 | 1018.2 |
| 20260506093036 | 50 | 0 | 1.0 | 5.0 | 0.00 | 0.00 | 0.00 | 82 | 1017.9 |
| 20260506091532 | 50 | 0 | 0.0 | 7.0 | 0.00 | 0.00 | 0.00 | 82 | 1017.9 |
| 20260506090040 | 50 | 153 | 2.0 | 6.0 | 0.00 | 0.00 | 0.00 | 82 | 1017.8 |
| 20260506084540 | 51 | 228 | 1.0 | 6.0 | 0.00 | 0.00 | 0.00 | 81 | 1017.6 |
| 20260506083037 | 51 | 144 | 2.0 | 6.0 | 0.00 | 0.00 | 0.00 | 81 | 1017.5 |
| 20260506081545 | 52 | 147 | 1.0 | 6.0 | 0.00 | 0.00 | 0.00 | 81 | 1017.4 |
| 20260506073042 | 53 | 143 | 1.0 | 6.0 | 0.00 | 0.00 | 0.00 | 80 | 1017.1 |
| 20260506071538 | 53 | 157 | 1.0 | 3.0 | 0.00 | 0.00 | 0.00 | 80 | 1017.0 |
| 20260506061541 | 55 | 0 | 0.0 | 6.0 | 0.00 | 0.00 | 0.00 | 79 | 1016.6 |
| 20260506044539 | 59 | 175 | 2.0 | 6.0 | 0.00 | 0.00 | 0.00 | 77 | 1015.6 |
| 20260506043036 | 59 | 179 | 2.0 | 5.0 | 0.00 | 0.00 | 0.00 | 77 | 1015.7 |
| 20260506041540 | 59 | 171 | 0.0 | 4.0 | 0.00 | 0.00 | 0.00 | 77 | 1015.5 |
| 20260506040043 | 59 | 169 | 0.0 | 4.0 | 0.00 | 0.00 | 0.00 | 77 | 1015.6 |
| 20260506034541 | 59 | 0 | 0.0 | 3.0 | 0.00 | 0.00 | 0.00 | 76 | 1015.4 |
| 20260506033038 | 61 | 170 | 0.0 | 3.0 | 0.00 | 0.00 | 0.00 | 74 | 1015.3 |
| 20260506031539 | 62 | 0 | 0.0 | 2.0 | 0.00 | 0.00 | 0.00 | 73 | 1015.2 |
| 20260506030035 | 63 | 214 | 0.0 | 1.0 | 0.00 | 0.00 | 0.00 | 72 | 1015.1 |